{"data":{"norad_id":56920,"epoch":"2026-09-20T16:47:41.622720Z","epoch_age_seconds":100335,"freshness":"FRESH","line1":"1 56920U 23083AW  26263.69978730  .00000215  00000+0  17320-4 0  9990","line2":"2 56920  43.0031  49.2506 0001139 253.5749 106.4978 15.27579214181626","mean_motion":15.27579214,"eccentricity":0.0001139,"inclination_deg":43.0031,"raan_deg":49.2506,"arg_perigee_deg":253.5749,"mean_anomaly_deg":106.4978,"bstar":1.732e-5,"rev_number":18162,"period_min":94.266797217627,"perigee_km":482.26996024301,"apogee_km":483.83293897183,"semimajor_km":6861.1884496074,"source":"CELESTRAK","updated_at":"2026-09-21T09:00:33.529117Z"}}